Tracking 28081 objects as of 27-Sep-2023
HD Live streaming from Space Station
objects crossing your sky now

STARLINK-4715

Track STARLINK-4715 now!
10-day predictions
STARLINK-4715 is classified as:


NORAD ID: 53801
Int'l Code: 2022-111AE
Perigee: 545.7 km
Apogee: 548.0 km
Inclination: 53.2 °
Period: 95.4 minutes
Semi major axis: 6917 km
RCS: Unknown
Launch date: September 11, 2022
Source: United States (US)
Launch site: AIR FORCE EASTERN TEST RANGE (AFETR)
Your satellite tracking list
Your tracking list is empty




NASA's NSSDC Master Catalog

Two Line Element Set (TLE):
1 53801U 22111AE  23269.55323369  .00003440  00000-0  23406-3 0  9991
2 53801  53.2179 322.3711 0001650  80.4348 279.6831 15.08849579 58683
Source of the keplerian elements: AFSPC